Regional Weather Roundup
Issued by NWS

Home | Current Version | Previous Version | Graphics & Text | Print | Product List | Glossary On
Versions: 1 2 3 4 5 6 7 8 9 10 11 12 13 14 15 16 17 18 19 20 21 22 23 24 25 26 27 28 29 30 31 32 33 34 35 36 37 38 39 40 41 42 43 44 45 46 47 48 49 50
732
ASUS43 KMPX 052201
RWRMN
WEATHER ROUNDUP FOR MINNESOTA
NATIONAL WEATHER SERVICE TWIN CITIES/CHANHASSEN MN
400 PM CST FRI FEB 05 2016


NOTE: "FAIR" INDICATES FEW OR NO CLOUDS BELOW 12,000 FEET WITH NO
SIGNIFICANT WEATHER AND/OR OBSTRUCTIONS TO VISIBILITY. N/A MEANS
CURRENT SKY AND/OR WEATHER CONDITIONS ARE NOT AVAILABLE.

MNZ060>063-068>070-052300-
   Twin Cities Metro

CITY           SKY/WX    TMP DP  RH WIND       PRES   REMARKS
TWIN CITIES    CLOUDY    28  12  51 SW10      30.23F WCI  19
ST PAUL        CLOUDY    27  17  66 S10       30.25F WCI  17
CRYSTAL        CLOUDY    29  13  51 S15       30.20F WCI  18
BLAINE         CLOUDY    30  16  55 S14       30.21F WCI  20
LAKEVILLE      CLOUDY    25  16  68 S9        30.23S WCI  15
EDEN PRAIRIE   CLOUDY    28  15  58 S16       30.22R WCI  16
SOUTH ST PAUL  CLOUDY    28  17  64 S9        30.24S WCI  19
LAKE ELMO      CLOUDY    28  19  69 S12       30.24S WCI  18
$$
MNZ001>005-007-008-013>017-022>024-027-028-052300-
   Northwest Minnesota

CITY           SKY/WX    TMP DP  RH WIND       PRES   REMARKS
BEMIDJI        CLOUDY    26  20  80 W12       30.09S WCI  15
HALLOCK        CLOUDY    21  16  79 CALM      30.12S
ROSEAU         PTSUNNY   21  16  79 SW5       30.09F WCI  15
WARROAD        CLOUDY    21  16  79 SW8       30.09S WCI  12
THIEF RVR FALL SUNNY     23  16  74 SW6       30.11F WCI  16
CROOKSTON      SUNNY     21  18  86 W3        30.14S
FOSSTON        PTSUNNY   23  18  80 SW7       30.11F WCI  15
DETROIT LAKES  CLOUDY    28  23  80 NW8       30.13R WCI  20
MOORHEAD       SUNNY     28  21  74 NW3       30.15S
PARK RAPIDS    CLOUDY    28  21  75 SW7       30.09S WCI  21
MAHNOMEN       CLOUDY    25  22  88 W8        30.12R WCI  16
$$
MNZ006-009>011-018-025>026-052300-
   North Central Minnesota

CITY           SKY/WX    TMP DP  RH WIND       PRES   REMARKS
BAUDETTE       PTSUNNY   25  14  63 CALM      30.06S
FLAG ISLAND    CLOUDY    19  16  86 CALM      30.07S
INTL FALLS     CLOUDY    25  14  63 W6        30.07S WCI  18
WASKISH        CLOUDY    25  19  80 SW8       30.09S WCI  16
LONGVILLE      CLOUDY    27  19  74 SW6       30.11R WCI  20
GRAND RAPIDS   CLOUDY    27  16  63 SW6       30.10S WCI  20
CRANE LAKE     CLOUDY    23  12  63 SW5       30.10F WCI  17
ORR            CLOUDY    25  12  58 SW3       30.05S
COOK           CLOUDY    25  16  68 SW7       30.08F WCI  17
WALKER         CLOUDY    27  20  76 SW8       30.09S WCI  19
$$
MNZ012-019>021-037-052300-
   Northeast Minnesota

CITY           SKY/WX    TMP DP  RH WIND       PRES   REMARKS
DULUTH         PTSUNNY   26  10  50 SW17      30.09F WCI  13
ELY            CLOUDY    23  14  68 CALM      30.07S
HIBBING        CLOUDY    25  13  60 VRB5      30.08R WCI  19
EVELETH        CLOUDY    27  12  54 SW6       30.09S WCI  20
DULUTH HARBOR  CLOUDY    30  16  55 SW12      30.16S WCI  21
TWO HARBORS    CLOUDY    27  18  69 SW6       30.10F WCI  20
SILVER BAY     CLOUDY    25  16  68 S5        30.11F WCI  19
GRAND MARAIS     N/A     26  17  68 SW15      30.16F WCI  14
G MARAIS ARPRT CLOUDY    18  10  73 S9        30.08F WCI   6
$$
MNZ029>031-032-039>041-046>048-054>057-064-052300-
   West Central Minnesota

CITY           SKY/WX    TMP DP  RH WIND       PRES   REMARKS
FERGUS FALLS   CLOUDY    27  21  80 W6        30.18R WCI  20
WHEATON        CLOUDY    32  28  86 W6        30.18R WCI  26
MORRIS         PTSUNNY   28  23  80 W6        30.14R WCI  22
ALEXANDRIA     CLOUDY    25  20  81 SW8       30.13R WCI  16
ELBOW LAKE     CLOUDY    25  21  86 SW3       30.15R FOG
WADENA         CLOUDY    27  19  74 W7        30.12R WCI  19
GLENWOOD       MOSUNNY   27  19  74 SW7       30.13S WCI  19
APPLETON       SUNNY     28  21  74 W6        30.15R WCI  22
BENSON         SUNNY     28  19  69 CALM      30.15R
ORTONVILLE     CLOUDY    30  25  80 W6        30.15R WCI  24
MADISON        SUNNY     30  23  74 W8        30.15R WCI  23
WILLMAR        FAIR      28  23  80 SW10      30.16F WCI  19
$$
MNZ033>034-036-042>043-049>051-058-059-052300-
   Central Minnesota

CITY           SKY/WX    TMP DP  RH WIND       PRES   REMARKS
ST CLOUD       PTSUNNY   24  14  65 S14       30.17F WCI  12
SAUK CENTRE    CLOUDY    25  19  78 S10       30.13F WCI  15
PAYNESVILLE    CLOUDY    26  18  74 S7        30.15F WCI  18
AITKIN         CLOUDY    30  12  47 SW7       30.11S WCI  23
PINE RIVER     CLOUDY    27  18  69 W5        30.15R WCI  21
BRAINERD       CLOUDY    26  14  60 S10       30.13R WCI  16
STAPLES        CLOUDY    27  16  63 SW8       30.13R WCI  18
LONG PRAIRIE   CLOUDY    27  18  69 S8        30.13S WCI  18
LITTLE FALLS   CLOUDY    27  16  63 S15       30.14F WCI  15
LITCHFIELD     CLOUDY    27  19  74 S3        30.17S
BUFFALO        CLOUDY    26  16  63 S8        30.21S WCI  18
MAPLE LAKE     CLOUDY    27  18  70 S8        30.19F WCI  18
$$
MNZ037-044-045-052-053-052300-
   East Central Minnesota

CITY           SKY/WX    TMP DP  RH WIND       PRES   REMARKS
PRINCETON      CLOUDY    28  14  54 S7        30.18F WCI  21
MORA           SUNNY     28  14  54 S9        30.18F WCI  20
CAMBRIDGE      PTSUNNY   28  14  54 S9        30.17F WCI  20
RUSH CITY      MOSUNNY   25  15  65 S10       30.19F WCI  15
MOOSE LAKE     CLOUDY    27  14  59 SW12      30.13R WCI  16
HINCKLEY       FAIR      27  18  69 S10       30.16F WCI  17
CLOQUET        CLOUDY    27  10  50 S13G20    30.12R WCI  16
MCGREGOR       CLOUDY    28  16  59 SW10      30.13R WCI  19
$$
MNZ071>073-080-081-089-090-097-098-052300-
   Southwest Minnesota

CITY           SKY/WX    TMP DP  RH WIND       PRES   REMARKS
MONTEVIDEO     CLOUDY    30  21  69 W7        30.17S WCI  23
GRANITE FALLS  CLOUDY    29  24  79 S9        30.17F WCI  21
CANBY          CLOUDY    32  27  81 NW8       30.16R WCI  25
MARSHALL       PTSUNNY   29  24  82 W10       30.16S WCI  20
REDWOOD FALLS  CLOUDY    28  23  81 SW10      30.17F WCI  19
OLIVIA         CLOUDY    30  27  86 SW12      30.16S WCI  21
PIPESTONE        N/A     30  21  69 W7        30.14R WCI  23
WINDOM         CLOUDY    27  23  86 S14       30.16S WCI  15
WORTHINGTON    CLOUDY    27  21  80 S15       30.16S WCI  15
JACKSON        CLOUDY    28  23  80 S16       30.18S WCI  17
TRACY          CLOUDY    29  25  86 SW13      30.16R WCI  18
SLAYTON        CLOUDY    27  26  98 SW14      30.15S FOG     WCI  15
$$
MNZ065>067-074>077-082>085-091>093-052300-
   South Central Minnesota

CITY           SKY/WX    TMP DP  RH WIND       PRES   REMARKS
MANKATO        CLOUDY    25  18  74 S9        30.21F WCI  15
NEW ULM        CLOUDY    25  21  86 S9        30.19S WCI  15
ST JAMES       CLOUDY    27  23  86 S15G21    30.19F WCI  15
FAIRMONT       CLOUDY    25  19  80 S20       30.19F WCI  11
GLENCOE        CLOUDY    26  22  82 S10G20    30.19F WCI  17
FARIBAULT      CLOUDY    27  18  69 S7        30.23S WCI  19
OWATONNA       CLOUDY    25  16  68 S10       30.22F WCI  15
WASECA         LGT SNOW  23  19  86 S13       30.24F WCI  11
ALBERT LEA     LGT SNOW  25  16  68 S13       30.23S WCI  13
$$
MNZ078>079-086>088-094>096-052300-
   Southeast Minnesota

CITY           SKY/WX    TMP DP  RH WIND       PRES   REMARKS
ROCHESTER      CLOUDY    20  14  77 S13       30.24F WCI   7
RED WING       CLOUDY    25  14  63 SE3       30.25F
STANTON        CLOUDY    26  17  68 S9        30.22F WCI  16
DODGE CENTER   CLOUDY    21  16  79 S10       30.23F WCI  10
WINONA         PTSUNNY   28  16  59 S5        30.31S WCI  23
AUSTIN         CLOUDY    21  16  79 S8        30.25S WCI  12
PRESTON        CLOUDY    20  13  76 S10       30.27S WCI   8
$$
ABBREVIATIONS USED IN REMARKS
   TC - TEMPERATURES IN CELSIUS
  WCI - WIND CHILL INDEX
   HX - HEAT INDEX
  VSB - VISIBILITY
$$




USA.gov is the U.S. government's official web portal to all federal, state and local government web resources and services.